Погода в Верхнем Науре

Россия / Чеченская Республика     43°36′58″N   45°14′01″E
темп.,
°C
ветер,
м/с
пор.,
м/с
влажн.,
%
обл.,
%
осадки,
мм/ч
давл.,
гПа
погр.,
м
22 апреля, чт
чт2200:00+12ссв1175100 0.0 102113
03:00+11с1277100 0.0 102148
06:00+11в0179100 0.0 102243
09:00+12ссв2270100 0.0 1022391
12:00+12ссв4467100 0.0 1023586
15:00+12всв3466100 0.0 1022673
18:00+11юв1178100 0.1 102234
21:00+10зсз1187100 0.8 102227
23 апреля, пт
пт2300:00+9сз2295100 1.0 102197
03:00+10сз2598100 2.4 1022311
06:00+10сз2497100 5.8 1023223
09:00+10з4795100 11.7 1025370
12:00+15з666847 0.7 10241182
15:00+17сз55485 0.8 10221658
18:00+15сз11601 0.0 102216
21:00+11ююв22636 0.0 102110
24 апреля, сб
сб2400:00+10ююв226940 0.0 102011
03:00+9ююв1173100 0.0 101910
06:00+10ююз1171100 0.0 102010
09:00+15св2354100 0.0 1019589
12:00+17всв4452100 0.0 10181073
15:00+20св334718 0.0 10171579
18:00+17всв366112 0.0 1018157
21:00+12юв227197 0.0 101925
25 апреля, вс
вс2500:00+11ю1172100 0.0 101910
03:00+13зсз126698 0.0 101914
06:00+12ссз227298 0.0 102078
09:00+15ссв336231 0.0 1019737
12:00+18св445447 0.0 10171244
15:00+20всв3449100 0.0 10151607
18:00+16в5962100 0.0 1015383
21:00+14вюв376099 0.0 1015367
26 апреля, пн
пн2600:00+12всв116590 0.0 101552
03:00+11с116798 0.0 101474
06:00+11сз2372100 0.0 1015156
09:00+14ссз2262100 0.0 1015727
12:00+15ссз3258100 0.0 1014965
15:00+16ссз3357100 0.0 10141169
18:00+14ссз3571100 0.0 1015202
21:00+13сз2374100 0.2 1016106